Weather Roundup
Issued by NWS

Home | Current Version | Previous Version | Text Only | Print | Product List | Glossary On
Versions: 1 2 3 4 5 6 7 8 9 10 11 12 13 14 15 16 17 18 19 20 21 22 23 24 25 26 27 28 29 30 31 32 33 34 35 36 37 38 39 40 41 42 43 44 45 46 47 48 49 50
000
NZUS93 KARX 011910
HRRWXR

CURRENT HOURLY OBSERVATIONS ACROSS
MUCH OF THE UPPER MISSISSIPPI VALLEY
NATIONAL WEATHER SERVICE LA CROSSE WI
200 PM CDT TUE SEP 01 2015


...SOUTHEAST MINNESOTA...


CITY           SKY/WX    TMP DP  RH WIND       PRES   REMARKS
ROCHESTER      MOSUNNY   85  73  67 S10       29.94S HX  91
ROCHESTER/MAYO FAIR      85  72  63 SE6       29.93S HX  91
WINONA         SUNNY     90  73  58 S6        29.91F HX  98
AUSTIN         MOSUNNY   84  73  70 S7        29.93S HX  91
ALBERT LEA     PTSUNNY   82  73  74 S8        29.92S
DODGE CENTER   MOSUNNY   82  73  74 S8        29.93S
PRESTON        SUNNY     84  72  67 S10       29.95S
OWATONNA       PTSUNNY   84  72  65 S7        29.91S
FARIBAULT      PTSUNNY   86  73  66 SE6       29.91S HX  93
$$

...ELSEWHERE IN MINNESOTA...


CITY           SKY/WX    TMP DP  RH WIND       PRES   REMARKS
MINNEAPOLIS    CLOUDY    83  70  64 SE8       29.89F
INTNL FALLS    SUNNY     79  51  37 W6        29.90S
DULUTH         MOSUNNY   82  65  56 CALM      29.91S
RED WING       MOSUNNY   88  72  58 SE7       29.88F HX  94
REDWOOD FALLS  CLOUDY    81  71  71 S7        29.89R
MANKATO        CLOUDY    84  73  70 S9        29.90S HX  91
WORTHINGTON    PTSUNNY   81  70  69 SW6       29.92S
FAIRMONT       MOSUNNY   82  68  61 S13       29.91S
$$

...SOUTHWEST WISCONSIN...


CITY           SKY/WX    TMP DP  RH WIND       PRES   REMARKS
LA CROSSE      SUNNY     88  74  63 S9        29.92S HX  96
PRAIRIE DU CHI MOSUNNY   86  70  58 SE10      29.95S HX  90
BOSCOBEL       SUNNY     90  73  57 S10       29.95F HX  98
LONE ROCK      SUNNY     87  72  60 S14       29.97S HX  93
PLATTEVILLE    SUNNY     85  75  71 S10       29.99F HX  93
FORT MC COY    MOSUNNY   88  68  51 S12       29.94F HX  92
CAMP DOUGLAS   MOSUNNY   88  73  62 S8        29.95S HX  96
VIROQUA          N/A     86  71  61 S9        29.98S HX  91
WIS DELLS      MOSUNNY   88  67  48 S12       29.97S HX  91
$$

...ELSEWHERE IN WISCONSIN...


CITY           SKY/WX    TMP DP  RH WIND       PRES   REMARKS
MILWAUKEE      PTSUNNY   89  68  49 SW13G23   29.99F HX  93
MADISON        PTSUNNY   87  70  56 S14       29.98F HX  92
GREEN BAY      PTSUNNY   86  71  60 SW13      29.95F HX  91
EAU CLAIRE     MOSUNNY   86  70  58 S10       29.91S HX  90
BLACK RVR FLS  FAIR      89  69  52 SW6       29.93S HX  93
MEDFORD        PTSUNNY   82  70  68 SW9       29.96S
WAUSAU         MOSUNNY   84  67  56 S10       29.95S
WIS RAPIDS     SUNNY     86  67  52 S12       29.97S
MARSHFIELD     MOSUNNY   85  66  53 SW9       29.96S
RICE LAKE      PTSUNNY   82  69  65 S5        29.94S
$$

...NORTHEAST IOWA...


CITY           SKY/WX    TMP DP  RH WIND       PRES   REMARKS
DECORAH        SUNNY     84  73  70 S9        29.95S HX  91
MASON CITY     PTSUNNY   85  74  69 S10       29.95S HX  92
CHARLES CITY   SUNNY     84  77  79 S10G16    29.96R HX  94
OELWEIN        SUNNY     84  75  74 S13       29.97S HX  92
$$

...ELSEWHERE IN IOWA...


CITY           SKY/WX    TMP DP  RH WIND       PRES   REMARKS
DES MOINES     PTSUNNY   88  71  57 S10       29.96S HX  94
IOWA CITY      SUNNY     88  72  58 SW9       29.99F HX  94
FORT DODGE     PTSUNNY   84  70  61 SW9       29.96R
$$

...NORTHERN ILLINOIS...


CITY           SKY/WX    TMP DP  RH WIND       PRES   REMARKS
CHICAGO-OHARE  MOSUNNY   87  71  58 SW10G20   30.01F HX  93
CHICAGO-MIDWAY MOSUNNY   86  71  60 SW12      30.02F HX  91
MOLINE         SUNNY     90  72  55 S10       29.99F HX  97
ROCKFORD       MOSUNNY   88  71  57 SW9       30.02F HX  94
PEORIA         SUNNY     94  67  41 SW10      30.03F HX  97
$$

NOTE: "FAIR" INDICATES FEW OR NO CLOUDS BELOW 12,000 FEET WITH NO
SIGNIFICANT WEATHER AND/OR OBSTRUCTIONS TO VISIBILITY. WIND
SPEEDS ARE IN MILES-PER-HOUR.



USA.gov is the U.S. government's official web portal to all federal, state and local government web resources and services.